TimeCDT,TemperatureF,Dew PointF,Humidity,Sea Level PressureIn,VisibilityMPH,Wind Direction,Wind SpeedMPH,Gust SpeedMPH,PrecipitationIn,Events,Conditions,WindDirDegrees,DateUTC
12:52 AM,37.9,27.0,65,30.39,10.0,NNE,8.1,-,N/A,,Overcast,20,2012-10-26 05:52:00
1:52 AM,37.9,27.0,65,30.40,10.0,NNE,8.1,-,N/A,,Overcast,20,2012-10-26 06:52:00
2:52 AM,37.9,27.0,65,30.41,10.0,NNE,10.4,-,N/A,,Overcast,20,2012-10-26 07:52:00
3:52 AM,37.0,26.1,65,30.43,10.0,NNE,6.9,-,N/A,,Mostly Cloudy,20,2012-10-26 08:52:00
4:52 AM,33.1,26.1,75,30.43,10.0,North,3.5,-,N/A,,Clear,10,2012-10-26 09:52:00
5:52 AM,33.1,25.0,72,30.45,10.0,Calm,Calm,-,N/A,,Clear,0,2012-10-26 10:52:00
6:52 AM,30.9,25.0,79,30.47,10.0,Calm,Calm,-,N/A,,Scattered Clouds,0,2012-10-26 11:52:00
7:52 AM,30.9,25.0,79,30.49,10.0,NNW,3.5,-,N/A,,Clear,340,2012-10-26 12:52:00
8:52 AM,34.0,27.0,75,30.52,10.0,NNW,6.9,-,N/A,,Clear,340,2012-10-26 13:52:00
9:52 AM,37.0,26.1,65,30.54,10.0,North,10.4,18.4,N/A,,Clear,360,2012-10-26 14:52:00
10:52 AM,42.1,24.1,49,30.55,10.0,North,13.8,26.5,N/A,,Clear,10,2012-10-26 15:52:00
11:52 AM,43.0,24.1,47,30.56,10.0,North,10.4,-,N/A,,Mostly Cloudy,360,2012-10-26 16:52:00
12:52 PM,43.0,25.0,49,30.53,10.0,NNE,9.2,-,N/A,,Partly Cloudy,20,2012-10-26 17:52:00
1:52 PM,44.1,25.0,47,30.51,10.0,North,6.9,23.0,N/A,,Partly Cloudy,10,2012-10-26 18:52:00
2:52 PM,46.0,26.1,46,30.48,10.0,NNW,6.9,-,N/A,,Scattered Clouds,330,2012-10-26 19:52:00
3:52 PM,46.9,26.1,44,30.46,10.0,NNW,8.1,-,N/A,,Partly Cloudy,340,2012-10-26 20:52:00
4:52 PM,46.0,26.1,46,30.45,10.0,North,6.9,-,N/A,,Clear,10,2012-10-26 21:52:00
5:52 PM,45.0,25.0,46,30.44,10.0,North,4.6,-,N/A,,Clear,10,2012-10-26 22:52:00
6:52 PM,41.0,25.0,53,30.45,10.0,North,4.6,-,N/A,,Clear,360,2012-10-26 23:52:00
7:52 PM,36.0,26.1,67,30.47,10.0,Calm,Calm,-,N/A,,Clear,0,2012-10-27 00:52:00
8:52 PM,36.0,26.1,67,30.47,10.0,NNW,3.5,-,N/A,,Clear,340,2012-10-27 01:52:00
9:52 PM,30.9,25.0,79,30.47,10.0,Calm,Calm,-,N/A,,Clear,0,2012-10-27 02:52:00
10:52 PM,28.9,24.1,82,30.46,10.0,Calm,Calm,-,N/A,,Clear,0,2012-10-27 03:52:00
11:52 PM,28.9,24.1,82,30.45,10.0,Calm,Calm,-,N/A,,Clear,0,2012-10-27 04:52:00